Location: Kott?ru
(16.6209°N, 80.6208°E)
Time: 14:20:05
(UTC+00:00)

GPS 2-17 Rocket1 - Pass Details

Date: 18 September 2020
Orbit: 571 x 659 km, 20.3° (Epoch: 31 October)

Event Time Altitude Azimuth Distance (km) Brightness Sun altitude
Rises 13:17:09 0° 238° (WSW) 2,866 7.4 -10.5°
Reaches altitude 10° 13:19:34 10° 230° (SW) 1,977 6.3 -11.1°
Maximum altitude 13:23:55 40° 161° (SSE) 930 3.8 -12.1°
Enters shadow 13:26:54 19° 100° (E) 1,524 4.4 -12.8°
